Time,TemperatureF,DewpointF,PressureIn,WindDirection,WindDirectionDegrees,WindSpeedMPH,WindSpeedGustMPH,Humidity,HourlyPrecipIn,Conditions,Clouds,dailyrainin,SoftwareType,DateUTC
2013-05-20 00:02:00,75.3,73.0,29.80,North,357,5.0,7.0,91,0.00,,,0.00,weatherlink.com 1.10,2013-05-20 05:02:00,
2013-05-20 00:17:00,75.1,73.0,29.79,NE,50,5.0,8.0,92,0.00,,,0.00,weatherlink.com 1.10,2013-05-20 05:17:00,
2013-05-20 00:32:00,75.1,73.0,29.79,SW,223,5.0,7.0,92,0.00,,,0.00,weatherlink.com 1.10,2013-05-20 05:32:00,
2013-05-20 00:47:00,75.1,73.0,29.79,SW,235,5.0,8.0,92,0.00,,,0.00,weatherlink.com 1.10,2013-05-20 05:47:00,
2013-05-20 01:02:00,75.1,73.0,29.78,West,260,2.0,10.0,92,0.00,,,0.00,weatherlink.com 1.10,2013-05-20 06:02:00,
2013-05-20 01:17:00,75.1,73.0,29.78,WSW,239,5.0,9.0,93,0.00,,,0.00,weatherlink.com 1.10,2013-05-20 06:17:00,
2013-05-20 01:32:00,75.2,73.0,29.78,SW,217,5.0,11.0,93,0.00,,,0.00,weatherlink.com 1.10,2013-05-20 06:32:00,
2013-05-20 01:47:00,75.1,73.0,29.77,ESE,110,5.0,12.0,93,0.00,,,0.00,weatherlink.com 1.10,2013-05-20 06:47:00,
2013-05-20 02:02:00,75.1,73.0,29.77,SSW,200,2.0,10.0,93,0.00,,,0.00,weatherlink.com 1.10,2013-05-20 07:02:00,
2013-05-20 02:17:00,75.0,73.0,29.76,SSW,194,4.0,14.0,93,0.00,,,0.00,weatherlink.com 1.10,2013-05-20 07:17:00,
2013-05-20 02:32:00,74.9,73.0,29.75,SSW,202,4.0,13.0,93,0.00,,,0.00,weatherlink.com 1.10,2013-05-20 07:32:00,
2013-05-20 02:47:00,74.9,73.0,29.75,SSW,196,5.0,11.0,93,0.00,,,0.00,weatherlink.com 1.10,2013-05-20 07:47:00,
2013-05-20 03:02:00,74.9,73.0,29.75,NNW,331,5.0,11.0,93,0.00,,,0.00,weatherlink.com 1.10,2013-05-20 08:02:00,
2013-05-20 03:17:00,74.8,73.0,29.76,NW,319,6.0,10.0,93,0.00,,,0.00,weatherlink.com 1.10,2013-05-20 08:17:00,
2013-05-20 03:32:00,74.9,73.0,29.76,WSW,242,5.0,12.0,93,0.00,,,0.00,weatherlink.com 1.10,2013-05-20 08:32:00,
2013-05-20 03:47:00,75.0,73.0,29.77,SSW,206,4.0,11.0,93,0.00,,,0.00,weatherlink.com 1.10,2013-05-20 08:47:00,
2013-05-20 04:02:00,75.2,73.0,29.75,West,279,5.0,12.0,93,0.00,,,0.00,weatherlink.com 1.10,2013-05-20 09:02:00,
2013-05-20 04:17:00,75.3,73.0,29.76,SSE,161,4.0,9.0,93,0.00,,,0.00,weatherlink.com 1.10,2013-05-20 09:17:00,
2013-05-20 04:32:00,75.3,73.0,29.76,East,87,2.0,10.0,93,0.00,,,0.00,weatherlink.com 1.10,2013-05-20 09:32:00,
2013-05-20 04:47:00,75.2,73.0,29.76,WSW,244,4.0,9.0,93,0.00,,,0.00,weatherlink.com 1.10,2013-05-20 09:47:00,
2013-05-20 05:02:00,75.1,73.0,29.76,WNW,296,5.0,10.0,93,0.00,,,0.00,weatherlink.com 1.10,2013-05-20 10:02:00,
2013-05-20 05:17:00,74.9,73.0,29.75,SSW,212,2.0,9.0,93,0.00,,,0.00,weatherlink.com 1.10,2013-05-20 10:17:00,
2013-05-20 05:32:00,74.9,73.0,29.76,NW,309,5.0,9.0,93,0.00,,,0.00,weatherlink.com 1.10,2013-05-20 10:32:00,
2013-05-20 05:47:00,74.8,73.0,29.77,SW,221,5.0,8.0,93,0.00,,,0.00,weatherlink.com 1.10,2013-05-20 10:47:00,
2013-05-20 06:02:00,74.9,73.0,29.77,WSW,244,4.0,9.0,93,0.00,,,0.00,weatherlink.com 1.10,2013-05-20 11:02:00,
2013-05-20 06:17:00,75.0,73.0,29.77,NW,324,5.0,8.0,93,0.00,,,0.00,weatherlink.com 1.10,2013-05-20 11:17:00,
2013-05-20 06:32:00,74.9,73.0,29.77,WNW,298,4.0,9.0,93,0.00,,,0.00,weatherlink.com 1.10,2013-05-20 11:32:00,
2013-05-20 06:48:00,75.1,73.0,29.78,NW,310,2.0,8.0,93,0.00,,,0.00,weatherlink.com 1.10,2013-05-20 11:48:00,
2013-05-20 07:02:00,75.2,73.0,29.78,East,85,2.0,8.0,92,0.00,,,0.00,weatherlink.com 1.10,2013-05-20 12:02:00,
2013-05-20 07:17:00,75.3,73.0,29.79,ENE,66,2.0,10.0,92,0.00,,,0.00,weatherlink.com 1.10,2013-05-20 12:17:00,
2013-05-20 07:32:00,75.4,73.0,29.79,WNW,292,2.0,8.0,92,0.00,,,0.00,weatherlink.com 1.10,2013-05-20 12:32:00,
2013-05-20 07:47:00,75.6,73.0,29.80,WNW,282,4.0,8.0,92,0.00,,,0.00,weatherlink.com 1.10,2013-05-20 12:47:00,
2013-05-20 08:03:00,75.8,73.0,29.80,East,88,2.0,8.0,91,0.00,,,0.00,weatherlink.com 1.10,2013-05-20 13:03:00,
2013-05-20 08:18:00,76.0,73.0,29.80,North,11,2.0,9.0,90,0.00,,,0.00,weatherlink.com 1.10,2013-05-20 13:18:00,
2013-05-20 08:33:00,76.4,73.0,29.80,WNW,294,4.0,10.0,90,0.00,,,0.00,weatherlink.com 1.10,2013-05-20 13:33:00,
2013-05-20 08:48:00,76.8,73.0,29.80,SSW,211,5.0,7.0,89,0.00,,,0.00,weatherlink.com 1.10,2013-05-20 13:48:00,
2013-05-20 09:03:00,77.7,74.0,29.80,West,277,5.0,10.0,87,0.00,,,0.00,weatherlink.com 1.10,2013-05-20 14:03:00,
2013-05-20 09:18:00,78.1,74.0,29.81,WSW,240,6.0,10.0,86,0.00,,,0.00,weatherlink.com 1.10,2013-05-20 14:18:00,
2013-05-20 09:33:00,78.5,74.0,29.81,South,180,4.0,10.0,86,0.00,,,0.00,weatherlink.com 1.10,2013-05-20 14:33:00,
2013-05-20 09:48:00,78.8,74.0,29.82,WNW,283,6.0,11.0,85,0.00,,,0.00,weatherlink.com 1.10,2013-05-20 14:48:00,
2013-05-20 10:03:00,79.5,74.0,29.82,SSW,213,8.0,9.0,84,0.00,,,0.00,weatherlink.com 1.10,2013-05-20 15:03:00,
2013-05-20 10:18:00,79.6,74.0,29.82,WSW,238,8.0,12.0,84,0.00,,,0.00,weatherlink.com 1.10,2013-05-20 15:18:00,
2013-05-20 10:33:00,79.5,75.0,29.82,West,279,4.0,10.0,85,0.00,,,0.00,weatherlink.com 1.10,2013-05-20 15:33:00,
2013-05-20 10:48:00,79.7,74.0,29.81,WNW,289,7.0,11.0,83,0.00,,,0.00,weatherlink.com 1.10,2013-05-20 15:48:00,
2013-05-20 11:03:00,79.1,74.0,29.82,WNW,292,4.0,11.0,85,0.00,,,0.00,weatherlink.com 1.10,2013-05-20 16:03:00,
2013-05-20 11:18:00,79.5,74.0,29.82,SSW,196,4.0,8.0,84,0.00,,,0.00,weatherlink.com 1.10,2013-05-20 16:18:00,
2013-05-20 11:33:00,80.1,75.0,29.82,SW,219,8.0,11.0,83,0.00,,,0.00,weatherlink.com 1.10,2013-05-20 16:33:00,
2013-05-20 11:48:00,80.2,75.0,29.82,SW,235,4.0,12.0,83,0.00,,,0.00,weatherlink.com 1.10,2013-05-20 16:48:00,
2013-05-20 12:03:00,82.2,76.0,29.82,NE,48,7.0,13.0,80,0.00,,,0.00,weatherlink.com 1.10,2013-05-20 17:03:00,
2013-05-20 12:18:00,83.5,76.0,29.81,West,264,5.0,8.0,77,0.00,,,0.00,weatherlink.com 1.10,2013-05-20 17:18:00,
2013-05-20 12:33:00,82.3,75.0,29.80,WSW,257,6.0,12.0,78,0.00,,,0.00,weatherlink.com 1.10,2013-05-20 17:33:00,
2013-05-20 12:48:00,82.1,75.0,29.80,SW,231,9.0,13.0,79,0.00,,,0.00,weatherlink.com 1.10,2013-05-20 17:48:00,
2013-05-20 13:03:00,82.8,75.0,29.79,SW,229,5.0,15.0,78,0.00,,,0.00,weatherlink.com 1.10,2013-05-20 18:03:00,
2013-05-20 13:18:00,82.9,76.0,29.79,SW,218,7.0,13.0,79,0.00,,,0.00,weatherlink.com 1.10,2013-05-20 18:18:00,
2013-05-20 13:33:00,82.4,75.0,29.79,West,263,6.0,13.0,79,0.00,,,0.00,weatherlink.com 1.10,2013-05-20 18:33:00,
2013-05-20 13:48:00,83.0,75.0,29.78,NW,306,6.0,12.0,77,0.00,,,0.00,weatherlink.com 1.10,2013-05-20 18:48:00,
2013-05-20 14:03:00,83.1,76.0,29.78,WSW,256,9.0,13.0,78,0.00,,,0.00,weatherlink.com 1.10,2013-05-20 19:03:00,
2013-05-20 14:18:00,83.0,76.0,29.78,West,278,7.0,15.0,78,0.00,,,0.00,weatherlink.com 1.10,2013-05-20 19:18:00,
2013-05-20 14:33:00,82.8,76.0,29.78,SW,224,11.0,15.0,80,0.00,,,0.00,weatherlink.com 1.10,2013-05-20 19:33:00,
2013-05-20 14:48:00,82.5,75.0,29.77,SW,233,11.0,14.0,79,0.00,,,0.00,weatherlink.com 1.10,2013-05-20 19:48:00,
2013-05-20 15:03:00,82.3,75.0,29.76,WSW,247,9.0,16.0,78,0.00,,,0.00,weatherlink.com 1.10,2013-05-20 20:03:00,
2013-05-20 15:18:00,82.3,75.0,29.76,WSW,243,10.0,14.0,79,0.00,,,0.00,weatherlink.com 1.10,2013-05-20 20:18:00,
2013-05-20 15:33:00,81.8,75.0,29.75,SW,234,12.0,14.0,80,0.00,,,0.00,weatherlink.com 1.10,2013-05-20 20:33:00,
2013-05-20 15:48:00,81.9,75.0,29.75,WSW,242,11.0,15.0,80,0.00,,,0.00,weatherlink.com 1.10,2013-05-20 20:48:00,
2013-05-20 16:03:00,81.9,75.0,29.75,WSW,258,5.0,13.0,80,0.00,,,0.00,weatherlink.com 1.10,2013-05-20 21:03:00,
2013-05-20 16:18:00,81.8,75.0,29.74,SW,225,8.0,14.0,80,0.00,,,0.00,weatherlink.com 1.10,2013-05-20 21:18:00,
2013-05-20 16:33:00,81.7,75.0,29.73,SW,220,10.0,14.0,80,0.00,,,0.00,weatherlink.com 1.10,2013-05-20 21:33:00,
2013-05-20 16:48:00,81.3,75.0,29.73,WNW,283,8.0,13.0,81,0.00,,,0.00,weatherlink.com 1.10,2013-05-20 21:48:00,
2013-05-20 17:03:00,81.3,75.0,29.73,West,280,10.0,14.0,82,0.00,,,0.00,weatherlink.com 1.10,2013-05-20 22:03:00,
2013-05-20 17:18:00,80.8,75.0,29.73,WSW,240,9.0,13.0,82,0.00,,,0.00,weatherlink.com 1.10,2013-05-20 22:18:00,
2013-05-20 17:33:00,80.6,75.0,29.73,SW,233,10.0,13.0,82,0.00,,,0.00,weatherlink.com 1.10,2013-05-20 22:33:00,
2013-05-20 17:48:00,80.6,75.0,29.72,WSW,248,11.0,12.0,83,0.00,,,0.00,weatherlink.com 1.10,2013-05-20 22:48:00,
2013-05-20 18:03:00,80.4,75.0,29.72,West,267,9.0,13.0,83,0.00,,,0.00,weatherlink.com 1.10,2013-05-20 23:03:00,
2013-05-20 18:18:00,79.8,75.0,29.71,SW,219,7.0,15.0,85,0.00,,,0.00,weatherlink.com 1.10,2013-05-20 23:18:00,
2013-05-20 18:33:00,79.7,75.0,29.72,SW,228,9.0,14.0,85,0.00,,,0.00,weatherlink.com 1.10,2013-05-20 23:33:00,
2013-05-20 18:48:00,78.9,74.0,29.71,SW,227,11.0,11.0,86,0.00,,,0.00,weatherlink.com 1.10,2013-05-20 23:48:00,
2013-05-20 19:03:00,78.1,74.0,29.71,WSW,240,9.0,15.0,87,0.00,,,0.00,weatherlink.com 1.10,2013-05-21 00:03:00,
2013-05-20 19:18:00,77.7,74.0,29.70,SW,225,8.0,14.0,88,0.00,,,0.00,weatherlink.com 1.10,2013-05-21 00:18:00,
2013-05-20 19:33:00,77.4,74.0,29.70,SW,230,9.0,13.0,89,0.00,,,0.00,weatherlink.com 1.10,2013-05-21 00:33:00,
2013-05-20 19:48:00,77.1,74.0,29.71,SW,223,8.0,15.0,89,0.00,,,0.00,weatherlink.com 1.10,2013-05-21 00:48:00,
2013-05-20 20:03:00,76.9,74.0,29.71,WNW,300,5.0,11.0,90,0.00,,,0.00,weatherlink.com 1.10,2013-05-21 01:03:00,
2013-05-20 20:19:00,76.7,74.0,29.72,West,259,4.0,10.0,90,0.00,,,0.00,weatherlink.com 1.10,2013-05-21 01:19:00,
2013-05-20 20:34:00,76.7,74.0,29.73,WNW,300,5.0,9.0,90,0.00,,,0.00,weatherlink.com 1.10,2013-05-21 01:34:00,
2013-05-20 20:49:00,76.6,74.0,29.73,WNW,299,4.0,11.0,91,0.00,,,0.00,weatherlink.com 1.10,2013-05-21 01:49:00,
2013-05-20 21:04:00,76.4,74.0,29.73,WSW,254,6.0,10.0,91,0.00,,,0.00,weatherlink.com 1.10,2013-05-21 02:04:00,
2013-05-20 21:19:00,76.4,74.0,29.75,WNW,289,2.0,9.0,91,0.00,,,0.00,weatherlink.com 1.10,2013-05-21 02:19:00,
2013-05-20 21:34:00,76.3,74.0,29.75,NNW,343,5.0,9.0,91,0.00,,,0.00,weatherlink.com 1.10,2013-05-21 02:34:00,
2013-05-20 21:49:00,76.1,74.0,29.76,WSW,238,1.0,9.0,92,0.00,,,0.00,weatherlink.com 1.10,2013-05-21 02:49:00,
2013-05-20 22:04:00,76.0,74.0,29.76,North,354,1.0,6.0,92,0.00,,,0.00,weatherlink.com 1.10,2013-05-21 03:04:00,
2013-05-20 22:19:00,76.2,74.0,29.76,NW,318,6.0,8.0,92,0.00,,,0.00,weatherlink.com 1.10,2013-05-21 03:19:00,
2013-05-20 22:34:00,76.3,74.0,29.77,NW,308,2.0,8.0,92,0.00,,,0.00,weatherlink.com 1.10,2013-05-21 03:34:00,
2013-05-20 22:49:00,76.4,74.0,29.77,NE,54,3.0,8.0,92,0.00,,,0.00,weatherlink.com 1.10,2013-05-21 03:49:00,
2013-05-20 23:04:00,76.5,74.0,29.77,SSW,201,6.0,9.0,91,0.00,,,0.00,weatherlink.com 1.10,2013-05-21 04:04:00,
2013-05-20 23:19:00,76.5,74.0,29.77,NNW,327,2.0,8.0,91,0.00,,,0.00,weatherlink.com 1.10,2013-05-21 04:19:00,
2013-05-20 23:34:00,76.2,74.0,29.77,WNW,287,5.0,7.0,91,0.00,,,0.00,weatherlink.com 1.10,2013-05-21 04:34:00,
2013-05-20 23:49:00,76.0,74.0,29.78,SSW,206,2.0,8.0,92,0.00,,,0.00,weatherlink.com 1.10,2013-05-21 04:49:00,